�������l�o���
Date,Time,MP-1(��Sv/h),MP-2(��Sv/h),MP-3(��Sv/h),MP-4(��Sv/h),MP-5(��Sv/h),MP-6(��Sv/h),MP-7(��Sv/h),MP-8(��Sv/h),����,����(m/s),���J
2020/08/22,00:00,0.709,1.019,0.641,1.245,0.901,0.400,0.696,0.651,�k�k��,3.9,��
2020/08/22,00:10,0.710,1.020,0.643,1.246,0.904,0.401,0.695,0.652,�k�k��,4.3,��
2020/08/22,00:20,0.712,1.020,0.642,1.244,0.902,0.399,0.698,0.651,�k�k��,4.7,��
2020/08/22,00:30,0.711,1.019,0.641,1.245,0.903,0.399,0.695,0.651,�k�k��,4.4,��
2020/08/22,00:40,0.711,1.018,0.643,1.242,0.903,0.400,0.696,0.651,�k�k��,5.1,��
2020/08/22,00:50,0.710,1.018,0.642,1.243,0.903,0.400,0.698,0.651,�k�k��,5.3,��
2020/08/22,01:00,0.710,1.020,0.643,1.244,0.904,0.401,0.696,0.650,�k�k��,5.0,��
2020/08/22,01:10,0.711,1.017,0.641,1.244,0.902,0.401,0.696,0.651,�k�k��,4.2,��
2020/08/22,01:20,0.710,1.018,0.643,1.246,0.902,0.401,0.697,0.652,�k,4.1,��
2020/08/22,01:30,0.708,1.021,0.642,1.242,0.901,0.400,0.696,0.652,�k,4.6,�L
2020/08/22,01:40,0.708,1.020,0.641,1.242,0.904,0.401,0.695,0.652,�k,4.6,��
2020/08/22,01:50,0.710,1.019,0.643,1.245,0.901,0.399,0.695,0.652,�k,3.8,�L
2020/08/22,02:00,0.709,1.017,0.642,1.241,0.900,0.400,0.695,0.652,�k,4.8,�L
2020/08/22,02:10,0.709,1.017,0.639,1.242,0.897,0.399,0.696,0.652,�k,5.3,�L
2020/08/22,02:20,0.708,1.018,0.642,1.243,0.901,0.398,0.695,0.652,�k,4.9,�L
2020/08/22,02:30,0.707,1.017,0.640,1.242,0.900,0.398,0.696,0.651,�k,5.9,�L
2020/08/22,02:40,0.708,1.017,0.642,1.240,0.900,0.399,0.695,0.652,�k,4.1,��
2020/08/22,02:50,0.708,1.018,0.640,1.243,0.901,0.397,0.696,0.652,�k,4.6,��
2020/08/22,03:00,0.707,1.018,0.641,1.241,0.901,0.399,0.697,0.650,�k,5.2,��
2020/08/22,03:10,0.706,1.017,0.641,1.242,0.901,0.398,0.695,0.651,�k,5.0,�L
2020/08/22,03:20,0.707,1.016,0.641,1.242,0.901,0.397,0.696,0.652,�k,4.6,�L
2020/08/22,03:30,0.706,1.016,0.640,1.241,0.902,0.398,0.695,0.652,�k,3.5,�L
2020/08/22,03:40,0.706,1.017,0.641,1.242,0.901,0.398,0.695,0.651,�k,3.6,�L
2020/08/22,03:50,0.705,1.016,0.642,1.240,0.900,0.398,0.697,0.651,�k�k��,3.1,��
2020/08/22,04:00,0.707,1.018,0.641,1.243,0.899,0.396,0.697,0.652,�k�k��,3.6,��
2020/08/22,04:10,0.706,1.017,0.642,1.241,0.901,0.398,0.696,0.652,�k,2.5,��
2020/08/22,04:20,0.706,1.018,0.643,1.243,0.901,0.397,0.696,0.650,�k,1.7,��
2020/08/22,04:30,0.706,1.018,0.640,1.240,0.900,0.397,0.696,0.653,�k,2.3,��
2020/08/22,04:40,0.705,1.018,0.641,1.241,0.900,0.396,0.694,0.650,�k�k��,2.2,��
2020/08/22,04:50,0.706,1.016,0.640,1.242,0.898,0.397,0.695,0.651,�k,2.2,��
2020/08/22,05:00,0.707,1.016,0.641,1.242,0.900,0.397,0.695,0.651,�k�k��,2.5,��
2020/08/22,05:10,0.707,1.015,0.642,1.239,0.901,0.397,0.694,0.651,�k,2.3,��
2020/08/22,05:20,0.707,1.017,0.641,1.241,0.900,0.397,0.696,0.652,�k,2.6,��
2020/08/22,05:30,0.706,1.017,0.641,1.242,0.900,0.398,0.696,0.652,�k,2.3,��
2020/08/22,05:40,0.707,1.017,0.641,1.241,0.900,0.398,0.695,0.651,�k,2.6,��
2020/08/22,05:50,0.706,1.017,0.640,1.240,0.897,0.398,0.694,0.651,�k,2.9,��
2020/08/22,06:00,0.707,1.017,0.642,1.241,0.900,0.397,0.695,0.651,�k,2.8,��
2020/08/22,06:10,0.708,1.017,0.640,1.240,0.898,0.397,0.695,0.651,�k,2.6,��
2020/08/22,06:20,0.706,1.017,0.641,1.244,0.900,0.397,0.695,0.653,�k�k��,2.6,��
2020/08/22,06:30,0.708,1.019,0.641,1.242,0.899,0.397,0.694,0.651,�k,3.0,��
2020/08/22,06:40,0.708,1.017,0.641,1.242,0.901,0.396,0.696,0.653,�k�k��,2.3,��
2020/08/22,06:50,0.707,1.016,0.641,1.243,0.899,0.396,0.696,0.652,�k�k��,2.2,��
2020/08/22,07:00,0.707,1.017,0.639,1.240,0.901,0.396,0.695,0.651,�k��,1.4,��
2020/08/22,07:10,0.708,1.015,0.640,1.241,0.899,0.396,0.696,0.651,�k,2.0,��
2020/08/22,07:20,0.709,1.016,0.641,1.240,0.900,0.396,0.696,0.652,�k,1.5,��
2020/08/22,07:30,0.708,1.018,0.642,1.241,0.901,0.398,0.696,0.653,�k��,2.0,��
2020/08/22,07:40,0.708,1.017,0.641,1.242,0.901,0.397,0.699,0.652,�k�k��,0.6,��
2020/08/22,07:50,0.709,1.020,0.643,1.242,0.901,0.397,0.696,0.651,�k��,1.9,��
2020/08/22,08:00,0.709,1.017,0.641,1.242,0.903,0.397,0.696,0.653,���k��,2.6,��
2020/08/22,08:10,0.710,1.015,0.642,1.244,0.902,0.397,0.696,0.652,�k�k��,2.5,��
2020/08/22,08:20,0.709,1.018,0.641,1.239,0.902,0.397,0.697,0.651,�k��,2.3,��
2020/08/22,08:30,0.709,1.020,0.640,1.242,0.899,0.396,0.698,0.653,�k�k��,2.8,��
2020/08/22,08:40,0.707,1.016,0.641,1.241,0.903,0.396,0.697,0.653,�k��,2.6,��
2020/08/22,08:50,0.709,1.016,0.642,1.241,0.901,0.396,0.698,0.653,�k�k��,2.6,��
2020/08/22,09:00,0.709,1.016,0.640,1.243,0.899,0.396,0.697,0.653,�k��,2.6,��
2020/08/22,09:10,0.710,1.017,0.641,1.243,0.900,0.397,0.698,0.653,�k�k��,3.4,��
2020/08/22,09:20,0.711,1.018,0.641,1.244,0.901,0.398,0.697,0.654,�k�k��,3.3,��
2020/08/22,09:30,0.709,1.018,0.641,1.243,0.898,0.397,0.696,0.652,�k�k��,3.0,��
2020/08/22,09:40,0.708,1.016,0.640,1.243,0.901,0.397,0.697,0.652,���k��,3.7,��
2020/08/22,09:50,0.709,1.015,0.642,1.241,0.899,0.399,0.698,0.651,���k��,3.7,��
2020/08/22,10:00,0.710,1.016,0.641,1.243,0.900,0.399,0.696,0.653,�k��,3.7,��
2020/08/22,10:10,0.709,1.018,0.641,1.244,0.902,0.398,0.696,0.652,�k��,3.4,��
2020/08/22,10:20,0.711,1.017,0.641,1.243,0.903,0.400,0.695,0.652,�k��,3.8,��
2020/08/22,10:30,0.710,1.018,0.640,1.243,0.902,0.399,0.696,0.649,�k��,3.2,��
2020/08/22,10:40,0.707,1.015,0.641,1.241,0.900,0.399,0.696,0.650,�k��,2.6,��
2020/08/22,10:50,0.709,1.017,0.640,1.244,0.901,0.400,0.696,0.650,�k��,2.6,��
2020/08/22,11:00,0.709,1.014,0.640,1.244,0.903,0.397,0.696,0.650,���k��,2.5,��
2020/08/22,11:10,0.709,1.016,0.640,1.242,0.902,0.400,0.694,0.650,���k��,2.3,��
2020/08/22,11:20,0.711,1.015,0.640,1.242,0.901,0.398,0.694,0.649,���k��,2.3,��
2020/08/22,11:30,0.710,1.018,0.639,1.242,0.902,0.399,0.697,0.650,���k��,2.2,��
2020/08/22,11:40,0.709,1.019,0.640,1.242,0.904,0.397,0.696,0.650,���k��,2.0,��
2020/08/22,11:50,0.709,1.017,0.642,1.244,0.904,0.397,0.695,0.651,��,2.6,��
2020/08/22,12:00,0.710,1.017,0.641,1.245,0.904,0.397,0.696,0.649,�k��,3.4,��
2020/08/22,12:10,0.710,1.015,0.642,1.244,0.903,0.398,0.696,0.650,���k��,3.0,��
2020/08/22,12:20,0.710,1.016,0.641,1.246,0.901,0.398,0.695,0.650,���k��,3.9,��
2020/08/22,12:30,0.709,1.015,0.641,1.246,0.904,0.397,0.696,0.651,���k��,3.8,��
2020/08/22,12:40,0.710,1.017,0.642,1.245,0.902,0.397,0.697,0.650,���k��,4.0,��
2020/08/22,12:50,0.709,1.019,0.642,1.244,0.904,0.398,0.696,0.652,���k��,4.2,��
2020/08/22,13:00,0.710,1.017,0.641,1.242,0.904,0.398,0.697,0.651,�k��,3.8,��
2020/08/22,13:10,0.710,1.019,0.642,1.246,0.904,0.400,0.696,0.650,���k��,3.4,��
2020/08/22,13:20,0.708,1.018,0.642,1.241,0.905,0.398,0.697,0.653,�k��,3.6,��
2020/08/22,13:30,0.709,1.017,0.641,1.245,0.903,0.397,0.697,0.650,���k��,3.0,��
2020/08/22,13:40,0.709,1.016,0.641,1.243,0.904,0.399,0.696,0.650,���k��,3.4,��
2020/08/22,13:50,0.709,1.016,0.641,1.246,0.904,0.398,0.696,0.649,���k��,3.7,��
2020/08/22,14:00,0.709,1.018,0.644,1.247,0.904,0.399,0.697,0.652,���k��,3.6,��
2020/08/22,14:10,0.711,1.017,0.644,1.244,0.906,0.398,0.697,0.651,�k��,3.4,��
2020/08/22,14:20,0.710,1.016,0.641,1.246,0.903,0.399,0.698,0.651,���k��,3.7,��
2020/08/22,14:30,0.709,1.018,0.641,1.246,0.905,0.398,0.697,0.650,�k��,2.8,��
2020/08/22,14:40,0.711,1.019,0.641,1.245,0.906,0.398,0.696,0.650,�k��,3.3,��
2020/08/22,14:50,0.709,1.019,0.641,1.244,0.906,0.399,0.697,0.651,�k��,3.0,��
2020/08/22,15:00,0.710,1.020,0.641,1.242,0.905,0.398,0.697,0.651,���k��,2.3,��
2020/08/22,15:10,0.710,1.019,0.641,1.244,0.903,0.399,0.698,0.650,�k��,2.3,��
2020/08/22,15:20,0.709,1.019,0.642,1.242,0.904,0.399,0.695,0.652,�k��,2.0,��
2020/08/22,15:30,0.709,1.020,0.642,1.244,0.904,0.398,0.696,0.652,���k��,1.7,��
2020/08/22,15:40,0.710,1.019,0.642,1.247,0.905,0.398,0.697,0.651,���k��,2.3,��
2020/08/22,15:50,0.711,1.019,0.642,1.247,0.904,0.398,0.694,0.650,���쓌,1.7,��
2020/08/22,16:00,0.710,1.019,0.642,1.245,0.905,0.399,0.697,0.649,��,2.0,��
2020/08/22,16:10,0.711,1.021,0.641,1.244,0.904,0.398,0.695,0.649,���쓌,2.3,��
2020/08/22,16:20,0.711,1.017,0.640,1.246,0.907,0.398,0.695,0.651,���쓌,2.5,��
2020/08/22,16:30,0.710,1.019,0.640,1.244,0.904,0.398,0.698,0.651,���쓌,2.9,��
2020/08/22,16:40,0.710,1.018,0.642,1.245,0.904,0.397,0.694,0.649,�쓌,1.5,��
2020/08/22,16:50,0.709,1.019,0.641,1.243,0.902,0.398,0.698,0.651,��쓌,1.5,��
2020/08/22,17:00,0.711,1.020,0.643,1.246,0.906,0.397,0.698,0.650,��,1.2,��
2020/08/22,17:10,0.713,1.019,0.642,1.244,0.905,0.396,0.696,0.652,��,1.5,��
2020/08/22,17:20,0.711,1.020,0.642,1.245,0.903,0.398,0.697,0.651,��쓌,1.4,��
2020/08/22,17:30,0.713,1.018,0.643,1.244,0.906,0.400,0.697,0.651,���쓌,1.4,��
2020/08/22,17:40,0.711,1.020,0.641,1.243,0.904,0.399,0.695,0.650,��쓌,1.7,�L
2020/08/22,17:50,0.712,1.018,0.643,1.246,0.907,0.401,0.696,0.650,��쓌,1.5,�L
2020/08/22,18:00,0.711,1.021,0.646,1.247,0.907,0.402,0.697,0.650,�쐼,2.2,�L
2020/08/22,18:10,0.714,1.018,0.645,1.244,0.906,0.403,0.697,0.652,�쓌,1.9,�L
2020/08/22,18:20,0.713,1.017,0.645,1.246,0.902,0.404,0.695,0.652,-,CALM,�L
2020/08/22,18:30,0.713,1.013,0.644,1.242,0.898,0.406,0.695,0.650,-,CALM,�L
2020/08/22,18:40,0.712,1.011,0.642,1.240,0.895,0.405,0.694,0.649,���k��,4.2,�L
2020/08/22,18:50,0.712,1.012,0.645,1.238,0.895,0.406,0.693,0.648,-,CALM,�L
2020/08/22,19:00,0.711,1.010,0.643,1.239,0.894,0.405,0.694,0.650,�쐼,0.8,�L
2020/08/22,19:10,0.708,1.009,0.643,1.240,0.892,0.405,0.696,0.650,��쐼,0.6,�L
2020/08/22,19:20,0.708,1.009,0.640,1.234,0.889,0.403,0.695,0.651,�쓌,0.6,�L
2020/08/22,19:30,0.705,1.007,0.639,1.236,0.891,0.401,0.695,0.650,�k��,0.9,�L
2020/08/22,19:40,0.704,1.003,0.638,1.232,0.888,0.400,0.693,0.650,�k�k��,1.1,��
2020/08/22,19:50,0.704,1.003,0.636,1.230,0.888,0.399,0.693,0.649,�k��,0.9,��
2020/08/22,20:00,0.703,1.003,0.638,1.230,0.886,0.399,0.693,0.648,�k�k��,0.8,��
2020/08/22,20:10,0.701,1.000,0.636,1.228,0.883,0.399,0.692,0.649,�k�k��,1.7,��
2020/08/22,20:20,0.700,1.002,0.635,1.229,0.884,0.398,0.693,0.646,�k�k��,2.2,��
2020/08/22,20:30,0.699,1.002,0.636,1.227,0.882,0.398,0.692,0.648,�k,1.7,��
2020/08/22,20:40,0.698,1.000,0.635,1.227,0.884,0.397,0.690,0.647,�k,1.7,��
2020/08/22,20:50,0.700,1.001,0.634,1.226,0.882,0.397,0.691,0.647,�k,2.6,��
2020/08/22,21:00,0.699,1.000,0.636,1.227,0.882,0.396,0.690,0.647,�k�k��,3.2,��
2020/08/22,21:10,0.700,1.001,0.633,1.225,0.882,0.396,0.691,0.646,�k�k��,3.2,��
2020/08/22,21:20,0.698,0.997,0.633,1.228,0.881,0.396,0.691,0.647,�k�k��,3.4,��
2020/08/22,21:30,0.697,1.000,0.631,1.225,0.882,0.396,0.690,0.647,�k�k��,3.9,��
2020/08/22,21:40,0.699,0.999,0.633,1.224,0.880,0.395,0.691,0.646,�k�k��,4.1,��
2020/08/22,21:50,0.698,0.998,0.633,1.225,0.882,0.396,0.693,0.645,�k�k��,5.2,��
2020/08/22,22:00,0.698,1.000,0.632,1.224,0.880,0.393,0.692,0.645,�k�k��,5.3,��
2020/08/22,22:10,0.695,0.997,0.633,1.224,0.880,0.393,0.692,0.646,�k�k��,4.5,��
2020/08/22,22:20,0.696,0.999,0.634,1.224,0.880,0.394,0.692,0.646,�k,3.4,��
2020/08/22,22:30,0.696,0.999,0.632,1.225,0.881,0.395,0.692,0.646,�k,2.0,��
2020/08/22,22:40,0.697,0.999,0.630,1.225,0.881,0.395,0.689,0.645,�k�k��,2.0,��
2020/08/22,22:50,0.697,0.997,0.632,1.224,0.879,0.396,0.692,0.646,�k�k��,2.8,��
2020/08/22,23:00,0.696,0.998,0.631,1.226,0.879,0.395,0.691,0.645,�k��,4.3,��
2020/08/22,23:10,0.697,1.001,0.632,1.223,0.880,0.394,0.692,0.646,�k��,3.6,��
2020/08/22,23:20,0.695,0.998,0.632,1.224,0.880,0.394,0.692,0.646,�k��,3.3,��
2020/08/22,23:30,0.696,0.998,0.631,1.225,0.880,0.393,0.691,0.645,�k��,3.1,��
2020/08/22,23:40,0.697,0.999,0.632,1.224,0.880,0.394,0.690,0.647,�k��,3.5,��
2020/08/22,23:50,0.697,0.999,0.631,1.226,0.881,0.394,0.691,0.648,�k��,2.8,��
